| time (UTC) | temp F | wind direction | speed MPH | gust MPH | rain 1hr in | rain 24hr in | rain mn in | humidity % | barometer mb |
| 20260502151515 | 80 | 98 | 4.0 | 8.0 | 0.00 | 0.00 | 0.00 | 13 | 1012.3 |
| 20260502123048 | 73 | 360 | 3.0 | 8.0 | 0.00 | 0.00 | 0.00 | 14 | 1010.3 |
| 20260502121538 | 73 | 360 | 4.0 | 11.0 | 0.00 | 0.00 | 0.00 | 14 | 1010.1 |
| 20260502114537 | 72 | 360 | 3.0 | 4.0 | 0.00 | 0.00 | 0.00 | 16 | 1010.1 |
| 20260502113036 | 71 | 360 | 3.0 | 4.0 | 0.00 | 0.00 | 0.00 | 16 | 1010.0 |
| 20260502111538 | 71 | 360 | 1.0 | 5.0 | 0.00 | 0.00 | 0.00 | 17 | 1010.0 |
| 20260502110033 | 72 | 360 | 3.0 | 5.0 | 0.00 | 0.00 | 0.00 | 17 | 1009.9 |
| 20260502104535 | 72 | 360 | 2.0 | 3.0 | 0.00 | 0.00 | 0.00 | 16 | 1009.9 |
| 20260502103032 | 73 | 360 | 1.0 | 4.0 | 0.00 | 0.00 | 0.00 | 16 | 1009.9 |
| 20260502101528 | 72 | 360 | 1.0 | 3.0 | 0.00 | 0.00 | 0.00 | 17 | 1009.8 |
| 20260502091524 | 73 | 360 | 3.0 | 6.0 | 0.00 | 0.00 | 0.00 | 15 | 1009.5 |
| 20260502071502 | 77 | 360 | 3.0 | 6.0 | 0.00 | 0.00 | 0.00 | 8 | 1008.6 |
| 20260502070059 | 77 | 360 | 3.0 | 5.0 | 0.00 | 0.00 | 0.00 | 8 | 1008.6 |
| 20260502064606 | 77 | 360 | 2.0 | 5.0 | 0.00 | 0.00 | 0.00 | 8 | 1008.7 |
| 20260502063106 | 78 | 360 | 2.0 | 5.0 | 0.00 | 0.00 | 0.00 | 8 | 1008.6 |
| 20260502061611 | 78 | 360 | 3.0 | 5.0 | 0.00 | 0.00 | 0.00 | 8 | 1008.5 |
| 20260502060048 | 79 | 360 | 3.0 | 9.0 | 0.00 | 0.00 | 0.00 | 8 | 1008.3 |
| 20260502054543 | 80 | 360 | 2.0 | 8.0 | 0.00 | 0.00 | 0.00 | 7 | 1008.3 |
| 20260502053040 | 80 | 360 | 2.0 | 6.0 | 0.00 | 0.00 | 0.00 | 7 | 1008.2 |
| 20260502051535 | 81 | 360 | 2.0 | 5.0 | 0.00 | 0.00 | 0.00 | 6 | 1008.2 |
| 20260502050031 | 81 | 360 | 1.0 | 4.0 | 0.00 | 0.00 | 0.00 | 6 | 1008.1 |
| 20260502044526 | 82 | 360 | 3.0 | 4.0 | 0.00 | 0.00 | 0.00 | 5 | 1007.9 |
| 20260502043024 | 82 | 360 | 3.0 | 5.0 | 0.00 | 0.00 | 0.00 | 5 | 1007.9 |
| 20260502041525 | 83 | 360 | 2.0 | 4.0 | 0.00 | 0.00 | 0.00 | 5 | 1007.7 |
| 20260502040015 | 82 | 360 | 1.0 | 3.0 | 0.00 | 0.00 | 0.00 | 5 | 1007.6 |
| 20260502034509 | 83 | 360 | 1.0 | 4.0 | 0.00 | 0.00 | 0.00 | 5 | 1007.5 |
| 20260502033004 | 84 | 360 | 2.0 | 6.0 | 0.00 | 0.00 | 0.00 | 4 | 1007.3 |
| 20260502031502 | 84 | 360 | 2.0 | 4.0 | 0.00 | 0.00 | 0.00 | 4 | 1007.2 |
| 20260502030106 | 85 | 360 | 1.0 | 5.0 | 0.00 | 0.00 | 0.00 | 4 | 1007.0 |
| 20260502023049 | 87 | 360 | 2.0 | 6.0 | 0.00 | 0.00 | 0.00 | 3 | 1006.7 |
| 20260502021546 | 87 | 360 | 2.0 | 10.0 | 0.00 | 0.00 | 0.00 | 3 | 1006.6 |
| 20260502020040 | 88 | 360 | 4.0 | 9.0 | 0.00 | 0.00 | 0.00 | 4 | 1006.5 |
| 20260502014534 | 89 | 360 | 5.0 | 11.0 | 0.00 | 0.00 | 0.00 | 3 | 1006.4 |
| 20260502013030 | 89 | 360 | 3.0 | 11.0 | 0.00 | 0.00 | 0.00 | 3 | 1006.4 |
| 20260502011530 | 89 | 184 | 3.0 | 11.0 | 0.00 | 0.00 | 0.00 | 4 | 1006.4 |
| 20260502010021 | 90 | 210 | 3.0 | 6.0 | 0.00 | 0.00 | 0.00 | 4 | 1006.6 |
| 20260502004520 | 90 | 209 | 3.0 | 7.0 | 0.00 | 0.00 | 0.00 | 4 | 1006.5 |
| 20260502003020 | 90 | 243 | 3.0 | 11.0 | 0.00 | 0.00 | 0.00 | 4 | 1006.6 |
| 20260502001520 | 90 | 202 | 1.0 | 7.0 | 0.00 | 0.00 | 0.00 | 5 | 1006.7 |
| 20260502000016 | 90 | 202 | 3.0 | 9.0 | 0.00 | 0.00 | 0.00 | 6 | 1006.8 |
| 20260501234516 | 90 | 211 | 5.0 | 10.0 | 0.00 | 0.00 | 0.00 | 6 | 1006.8 |
| 20260501233015 | 90 | 229 | 4.0 | 9.0 | 0.00 | 0.00 | 0.00 | 6 | 1006.9 |
| 20260501231513 | 90 | 181 | 6.0 | 11.0 | 0.00 | 0.00 | 0.00 | 7 | 1007.0 |
| 20260501230012 | 89 | 225 | 4.0 | 10.0 | 0.00 | 0.00 | 0.00 | 7 | 1007.1 |
| 20260501224510 | 88 | 196 | 4.0 | 11.0 | 0.00 | 0.00 | 0.00 | 8 | 1007.3 |
| 20260501223012 | 89 | 252 | 5.0 | 10.0 | 0.00 | 0.00 | 0.00 | 7 | 1007.4 |
| 20260501221509 | 89 | 241 | 1.0 | 12.0 | 0.00 | 0.00 | 0.00 | 8 | 1007.7 |
| 20260501220007 | 88 | 169 | 4.0 | 14.0 | 0.00 | 0.00 | 0.00 | 7 | 1008.0 |
| 20260501214505 | 88 | 254 | 1.0 | 8.0 | 0.00 | 0.00 | 0.00 | 9 | 1008.1 |
| 20260501213005 | 88 | 202 | 6.0 | 12.0 | 0.00 | 0.00 | 0.00 | 10 | 1008.5 |
| 20260501211503 | 88 | 162 | 3.0 | 10.0 | 0.00 | 0.00 | 0.00 | 9 | 1008.5 |
| 20260501210002 | 86 | 213 | 4.0 | 16.0 | 0.00 | 0.00 | 0.00 | 10 | 1008.8 |
| 20260501204501 | 87 | 145 | 2.0 | 12.0 | 0.00 | 0.00 | 0.00 | 11 | 1009.0 |
| 20260501203104 | 87 | 286 | 3.0 | 11.0 | 0.00 | 0.00 | 0.00 | 11 | 1009.0 |
| 20260501201559 | 86 | 216 | 1.0 | 11.0 | 0.00 | 0.00 | 0.00 | 11 | 1009.1 |
| 20260501200056 | 86 | 243 | 5.0 | 12.0 | 0.00 | 0.00 | 0.00 | 11 | 1009.2 |
| 20260501194601 | 86 | 238 | 4.0 | 9.0 | 0.00 | 0.00 | 0.00 | 12 | 1009.4 |
| 20260501193054 | 86 | 186 | 2.0 | 9.0 | 0.00 | 0.00 | 0.00 | 12 | 1009.7 |
| 20260501191554 | 85 | 154 | 3.0 | 8.0 | 0.00 | 0.00 | 0.00 | 13 | 1009.9 |
| 20260501190050 | 84 | 304 | 3.0 | 6.0 | 0.00 | 0.00 | 0.00 | 17 | 1010.1 |
| 20260501184549 | 84 | 182 | 1.0 | 6.0 | 0.00 | 0.00 | 0.00 | 15 | 1010.3 |
| 20260501183048 | 83 | 205 | 1.0 | 8.0 | 0.00 | 0.00 | 0.00 | 15 | 1010.4 |
| 20260501181551 | 83 | 266 | 2.0 | 9.0 | 0.00 | 0.00 | 0.00 | 15 | 1010.7 |
| 20260501180044 | 81 | 360 | 1.0 | 6.0 | 0.00 | 0.00 | 0.00 | 15 | 1010.9 |
| 20260501174544 | 81 | 221 | 3.0 | 7.0 | 0.00 | 0.00 | 0.00 | 16 | 1011.0 |
| 20260501173045 | 81 | 240 | 3.0 | 9.0 | 0.00 | 0.00 | 0.00 | 18 | 1011.1 |
| 20260501171539 | 80 | 201 | 1.0 | 9.0 | 0.00 | 0.00 | 0.00 | 18 | 1011.2 |
| 20260501170042 | 80 | 360 | 1.0 | 9.0 | 0.00 | 0.00 | 0.00 | 19 | 1011.2 |
| 20260501164544 | 79 | 360 | 5.0 | 9.0 | 0.00 | 0.00 | 0.00 | 20 | 1011.2 |
| 20260501163037 | 78 | 360 | 3.0 | 9.0 | 0.00 | 0.00 | 0.00 | 20 | 1011.2 |
| 20260501161532 | 77 | 360 | 3.0 | 12.0 | 0.00 | 0.00 | 0.00 | 21 | 1011.1 |
| 20260501160030 | 78 | 360 | 5.0 | 10.0 | 0.00 | 0.00 | 0.00 | 21 | 1011.0 |
| 20260501154529 | 78 | 360 | 2.0 | 9.0 | 0.00 | 0.00 | 0.00 | 22 | 1010.9 |
| 20260501153035 | 76 | 360 | 2.0 | 7.0 | 0.00 | 0.00 | 0.00 | 23 | 1010.7 |